OE3XAM-13 Weather Reports


time (UTC)temp
C
wind
direction
speed
KPH
gust
KPH
rain 1hr
cm
rain 24hr
cm
rain mn
cm
humidity
%
barometer
mb
20260507144128 19 0 8.0 0.0 0.00 0.00 0.00 38 977.0
20260507141128 19 0 3.2 0.0 0.00 0.00 0.00 38 977.0
20260507134128 19 0 6.4 0.0 0.00 0.00 0.00 37 976.0
20260507131128 20 0 17.7 0.0 0.00 0.00 0.00 37 977.0
20260507124128 20 0 1.6 0.0 0.00 0.00 0.00 37 977.0
20260507121128 20 0 14.5 0.0 0.00 0.00 0.00 36 977.0
20260507114128 21 0 16.1 0.0 0.00 0.00 0.00 35 977.0
20260507111128 20 0 6.4 0.0 0.00 0.00 0.00 38 977.0
20260507104128 20 0 22.5 0.0 0.00 0.00 0.00 40 977.0
20260507101128 17 0 4.8 0.0 0.00 0.00 0.00 42 979.0
20260507094128 17 0 8.0 0.0 0.00 0.00 0.00 42 978.0
20260507091128 18 0 8.0 0.0 0.00 0.00 0.00 42 978.0
20260507084128 17 0 4.8 0.0 0.00 0.00 0.00 46 978.0
20260507081128 16 0 6.4 0.0 0.00 0.00 0.00 50 977.0
20260507074128 15 0 8.0 0.0 0.00 0.00 0.00 57 977.0
20260507071128 13 0 1.6 0.0 0.00 0.00 0.00 64 977.0
20260507064128 12 0 1.6 0.0 0.00 0.00 0.00 67 977.0
20260507061128 12 0 3.2 0.0 0.00 0.00 0.00 66 976.0
20260507054128 12 0 3.2 0.0 0.00 0.00 0.00 65 977.0
20260507051128 12 0 1.6 0.0 0.00 0.00 0.00 66 976.0
20260507044128 11 0 4.8 0.0 0.00 0.00 0.00 70 976.0
20260507041128 10 0 1.6 0.0 0.00 0.00 0.00 74 976.0
20260507034128 10 0 0.0 0.0 0.00 0.00 0.00 75 976.0
20260507031128 10 0 1.6 0.0 0.00 0.00 0.00 74 975.0
20260507024128 11 0 1.6 0.0 0.00 0.00 0.00 73 975.0
20260507021128 11 0 0.0 0.0 0.00 0.00 0.00 70 976.0
20260507014128 12 0 0.0 0.0 0.00 0.00 0.00 67 975.0
20260507011128 12 0 6.4 0.0 0.00 0.00 0.00 70 975.0
20260507004128 12 0 0.0 0.0 0.00 0.00 0.00 67 975.0
20260507001128 12 0 6.4 0.0 0.00 0.00 0.00 68 975.0
20260506234128 13 0 3.2 0.0 0.00 0.00 0.00 69 975.0
20260506231128 14 0 6.4 0.0 0.00 0.00 0.00 65 975.0
20260506224128 14 0 9.7 0.0 0.00 0.00 0.00 63 974.0
20260506221128 14 0 1.6 0.0 0.00 0.00 0.00 66 973.0
20260506214128 15 0 4.8 0.0 0.00 0.00 0.00 65 974.0
20260506211128 16 0 6.4 0.0 0.00 0.00 0.00 61 972.0
20260506204128 16 0 12.9 0.0 0.00 0.00 0.00 57 971.0
20260506201128 16 0 12.9 0.0 0.00 0.00 0.00 53 971.0
20260506194128 17 0 3.2 0.0 0.00 0.00 0.00 48 970.0
20260506191128 21 0 12.9 0.0 0.00 0.00 0.00 34 968.0
20260506184128 21 0 1.6 0.0 0.00 0.00 0.00 34 968.0
20260506181128 22 0 1.6 0.0 0.00 0.00 0.00 33 967.0
20260506174128 22 0 6.4 0.0 0.00 0.00 0.00 31 967.0
20260506171128 23 0 6.4 0.0 0.00 0.00 0.00 31 967.0
20260506164128 24 0 8.0 0.0 0.00 0.00 0.00 28 967.0
20260506161128 25 0 11.3 0.0 0.00 0.00 0.00 28 967.0
20260506154128 25 0 3.2 0.0 0.00 0.00 0.00 30 967.0
20260506151128 25 0 3.2 0.0 0.00 0.00 0.00 29 967.0